Weather History for Fort Polk, LA

Change the Weather History Date:

Wednesday, January 23, 2013

  Actual Average (KPOE) Record (KPOE)
Temperature  
Mean Temperature 59 °F -  
Max Temperature 72 °F 58 °F 78 °F (2002)
Min Temperature 46 °F 39 °F 24 °F (2014)
Degree Days  
Heating Degree Days 6    
Growing Degree Days 9 (Base 50)    
Moisture  
Dew Point 48 °F    
Average Humidity 73    
Maximum Humidity 93    
Minimum Humidity 43    
Precipitation  
Precipitation 0.00 in - - ()
Sea Level Pressure  
Sea Level Pressure 30.30 in    
Wind  
Wind Speed 6 mph (SSW)    
Max Wind Speed 10 mph    
Max Gust Speed 17 mph    
Visibility 9 miles    
Events      
Averages and records for this station are not official NWS values.
T = Trace of Precipitation, MM = Missing Value Source: NWS Daily Summary

Daily Weather History Graph

Daily Weather History Graph

Search for Another Location

Airport:

Trip Planner

Search our weather history database for the weather conditions in past years. The results will help you decide how hot, cold, wet, or windy it might be!

Date:

Astronomy

Jan. 23, 2013 Rise Set
Actual Time 7:09 AM CST 5:40 PM CST
Civil Twilight 6:43 AM CST 6:06 PM CST
Nautical Twilight 6:14 AM CST 6:35 PM CST
Astronomical Twilight 5:45 AM CST 7:04 PM CST
Moon 2:54 PM CST (1/23) 4:18 AM CST (1/23)
Length of Visible Light 11h 22m
Length of Day
10h 31m
Waxing Gibbous, 89% of the Moon is Illuminated
Jan 23
Waxing Gibbous
Jan 26
Full
Feb 3
Last Quarter
Feb 10
New
Feb 17
First Quarter

Hourly Weather History & Observations

Time (CST) Temp. Dew Point Humidity Pressure Visibility Wind Dir Wind Speed Gust Speed Precip Events Conditions
12:53 AM 50.0 °F 44.1 °F 80% 30.30 in 10.0 mi South 6.9 mph - N/A   Clear
1:53 AM 48.9 °F 42.1 °F 77% 30.31 in 10.0 mi South 4.6 mph - N/A   Clear
2:53 AM 48.9 °F 42.1 °F 77% 30.30 in 10.0 mi South 4.6 mph - N/A   Clear
3:53 AM 48.9 °F 42.1 °F 77% 30.30 in 10.0 mi SSW 3.5 mph - N/A   Clear
4:53 AM 48.9 °F 45.0 °F 86% 30.31 in 9.0 mi SSW 3.5 mph - N/A   Clear
5:53 AM 48.9 °F 46.9 °F 93% 30.32 in 4.0 mi Calm Calm - N/A   Clear
6:21 AM 48.2 °F 46.4 °F 93% 30.33 in 2.5 mi SSW 3.5 mph - N/A   Clear
6:44 AM 48.2 °F 46.4 °F 93% 30.33 in 4.0 mi South 3.5 mph - N/A   Clear
6:53 AM 46.9 °F 45.0 °F 93% 30.33 in 5.0 mi South 5.8 mph - N/A   Clear
7:53 AM 48.9 °F 46.9 °F 93% 30.34 in 7.0 mi South 5.8 mph - N/A   Clear
8:53 AM 54.0 °F 50.0 °F 86% 30.35 in 10.0 mi South 6.9 mph - N/A   Clear
9:53 AM 60.1 °F 52.0 °F 75% 30.36 in 10.0 mi SW 6.9 mph - N/A   Clear
10:53 AM 64.0 °F 51.1 °F 63% 30.36 in 10.0 mi South 8.1 mph - N/A   Clear
11:53 AM 66.9 °F 51.1 °F 57% 30.33 in 10.0 mi SW 8.1 mph 17.3 mph N/A   Clear
12:53 PM 69.1 °F 48.0 °F 47% 30.30 in 10.0 mi SW 8.1 mph - N/A   Clear
1:53 PM 70.0 °F 48.9 °F 47% 30.27 in 10.0 mi SW 10.4 mph 17.3 mph N/A   Partly Cloudy
2:53 PM 72.0 °F 48.0 °F 43% 30.26 in 10.0 mi SSW 9.2 mph - N/A   Clear
3:53 PM 71.1 °F 48.0 °F 44% 30.25 in 10.0 mi South 8.1 mph - N/A   Clear
4:53 PM 69.1 °F 50.0 °F 51% 30.25 in 10.0 mi South 6.9 mph 17.3 mph N/A   Scattered Clouds
5:53 PM 64.9 °F 51.1 °F 61% 30.25 in 10.0 mi South 6.9 mph - N/A   Clear
6:53 PM 63.0 °F 52.0 °F 67% 30.25 in 10.0 mi South 8.1 mph - N/A   Clear
7:53 PM 61.0 °F 53.1 °F 75% 30.25 in 10.0 mi South 8.1 mph - N/A   Clear
8:53 PM 60.1 °F 52.0 °F 75% 30.26 in 10.0 mi South 5.8 mph - N/A   Clear
9:53 PM 57.9 °F 52.0 °F 81% 30.27 in 10.0 mi South 6.9 mph - N/A   Clear
10:53 PM 55.9 °F 52.0 °F 87% 30.27 in 10.0 mi South 6.9 mph - N/A   Clear
11:53 PM 55.9 °F 52.0 °F 87% 30.27 in 10.0 mi South 5.8 mph - N/A   Partly Cloudy